Погода в Приближной

Россия / Кабардино-Балкарская Республика     43°46′18″N   44°07′54″E
темп.,
°C
ветер,
м/с
пор.,
м/с
влажн.,
%
обл.,
%
осадки,
мм/ч
давл.,
гПа
погр.,
м
11 апреля, вс
вс1100:00+6ссз1283100 0.0 102017
03:00+6ссз118285 0.0 102039
06:00+5зсз118620 0.0 102011
09:00+10с116627 0.0 1019579
12:00+14всв3357100 0.0 10171197
15:00+14в2256100 0.0 10161146
18:00+13ю1163100 0.0 101611
21:00+12сз2271100 0.1 101644
12 апреля, пн
пн1200:00+10зсз22835 0.0 101529
03:00+9з3389100 0.0 101558
06:00+9зюз3683100 0.0 1017157
09:00+14зсз4564100 0.0 1019989
12:00+14сз6669100 0.0 10191020
15:00+12сз5573100 0.1 1020737
18:00+11сз4577100 0.0 1022413
21:00+10сз2479100 0.0 1022243
13 апреля, вт
вт1300:00+10з2382100 0.1 1022191
03:00+8зсз2391100 0.6 102295
06:00+9з2386100 0.0 1022131
09:00+11зсз2279100 0.0 1022326
12:00+12ссз237487 0.0 1021698
15:00+14сз227193 0.0 1021793
18:00+12сз347991 0.0 1020257
21:00+11зсз2387100 0.1 1020124
14 апреля, ср
ср1400:00+10зсз2491100 0.2 1017186
03:00+10з3693100 0.6 1016302
06:00+10з2591100 0.0 1016250
09:00+13сз4675100 0.0 1016754
12:00+16ссз4563100 0.1 10161377
15:00+14ссв3470100 0.5 1016551
18:00+13сз3575100 0.1 1017271
21:00+11з2481100 0.1 1018141
15 апреля, чт
чт1500:00+10з2384100 0.0 101758
03:00+10юз2286100 0.0 101724
06:00+10зюз2386100 0.0 101662
09:00+14з1265100 0.0 1016521
12:00+19св214967 0.0 10141276
15:00+20в224588 0.0 10131564
18:00+18всв2256100 0.0 101334
21:00+15ссз3568100 0.3 1016125